| time (UTC) | temp F | wind direction | speed MPH | gust MPH | rain 1hr in | rain 24hr in | rain mn in | humidity % | barometer mb |
| 20260906065400 | 73 | 184 | 1.0 | 3.0 | 0.00 | 0.00 | 0.00 | 72 | 1020.5 |
| 20260906064929 | 72 | 164 | 1.0 | 3.0 | 0.00 | 0.00 | 0.00 | 75 | 1020.4 |
| 20260906063900 | 71 | 163 | 1.0 | 2.0 | 0.00 | 0.00 | 0.00 | 77 | 1020.4 |
| 20260906063348 | 70 | 163 | 1.0 | 3.0 | 0.00 | 0.00 | 0.00 | 78 | 1020.4 |
| 20260906062841 | 69 | 159 | 1.0 | 3.0 | 0.00 | 0.00 | 0.00 | 78 | 1020.5 |
| 20260906062331 | 69 | 120 | 0.0 | 2.0 | 0.00 | 0.00 | 0.00 | 82 | 1020.5 |
| 20260906061818 | 68 | 120 | 0.0 | 2.0 | 0.00 | 0.00 | 0.00 | 83 | 1020.5 |
| 20260906061311 | 67 | 120 | 0.0 | 0.0 | 0.00 | 0.00 | 0.00 | 85 | 1020.4 |
| 20260906060802 | 67 | 121 | 0.0 | 0.0 | 0.00 | 0.00 | 0.00 | 86 | 1020.4 |
| 20260906060252 | 66 | 120 | 0.0 | 0.0 | 0.00 | 0.00 | 0.00 | 87 | 1020.3 |
| 20260906055742 | 66 | 120 | 0.0 | 0.0 | 0.00 | 0.00 | 0.00 | 86 | 1020.3 |
| 20260906055306 | 66 | 121 | 0.0 | 0.0 | 0.00 | 0.00 | 0.00 | 87 | 1020.3 |
| 20260906054240 | 65 | 120 | 0.0 | 0.0 | 0.00 | 0.00 | 0.00 | 89 | 1020.2 |
| 20260906053727 | 65 | 120 | 0.0 | 0.0 | 0.00 | 0.00 | 0.00 | 89 | 1020.1 |
| 20260906053218 | 65 | 120 | 0.0 | 0.0 | 0.00 | 0.00 | 0.00 | 88 | 1020.1 |
| 20260906052712 | 65 | 120 | 0.0 | 0.0 | 0.00 | 0.00 | 0.00 | 88 | 1020.1 |
| 20260906052200 | 65 | 120 | 0.0 | 0.0 | 0.00 | 0.00 | 0.00 | 87 | 1020.1 |
| 20260906051653 | 65 | 121 | 0.0 | 0.0 | 0.00 | 0.00 | 0.00 | 88 | 1020.0 |
| 20260906051145 | 65 | 120 | 0.0 | 0.0 | 0.00 | 0.00 | 0.00 | 88 | 1020.1 |
| 20260906050630 | 65 | 121 | 0.0 | 0.0 | 0.00 | 0.00 | 0.00 | 87 | 1020.0 |
| 20260906050122 | 65 | 121 | 0.0 | 0.0 | 0.00 | 0.00 | 0.00 | 87 | 1020.0 |
| 20260906045617 | 65 | 120 | 0.0 | 0.0 | 0.00 | 0.00 | 0.00 | 87 | 1019.9 |
| 20260906045113 | 65 | 120 | 0.0 | 0.0 | 0.00 | 0.00 | 0.00 | 86 | 1020.0 |
| 20260906044726 | 65 | 121 | 0.0 | 0.0 | 0.00 | 0.00 | 0.00 | 86 | 1019.8 |
| 20260906042538 | 65 | 120 | 0.0 | 0.0 | 0.00 | 0.00 | 0.00 | 84 | 1019.8 |
| 20260906042040 | 65 | 121 | 0.0 | 0.0 | 0.00 | 0.00 | 0.00 | 83 | 1019.8 |
| 20260906041538 | 66 | 120 | 0.0 | 0.0 | 0.00 | 0.00 | 0.00 | 83 | 1019.7 |
| 20260906041102 | 66 | 121 | 0.0 | 0.0 | 0.00 | 0.00 | 0.00 | 83 | 1019.7 |
| 20260906040018 | 66 | 120 | 0.0 | 0.0 | 0.00 | 0.00 | 0.00 | 83 | 1019.8 |
| 20260906035508 | 67 | 120 | 0.0 | 0.0 | 0.00 | 0.00 | 0.00 | 82 | 1019.7 |
| 20260906035023 | 67 | 121 | 0.0 | 0.0 | 0.00 | 0.00 | 0.00 | 81 | 1019.7 |
| 20260906033954 | 67 | 121 | 0.0 | 0.0 | 0.00 | 0.00 | 0.00 | 81 | 1019.6 |
| 20260906033452 | 67 | 120 | 0.0 | 0.0 | 0.00 | 0.00 | 0.00 | 80 | 1019.6 |
| 20260906032947 | 67 | 121 | 0.0 | 0.0 | 0.00 | 0.00 | 0.00 | 80 | 1019.6 |
| 20260906032438 | 67 | 121 | 0.0 | 0.0 | 0.00 | 0.00 | 0.00 | 79 | 1019.6 |
| 20260906031930 | 67 | 120 | 0.0 | 0.0 | 0.00 | 0.00 | 0.00 | 79 | 1019.5 |
| 20260906031419 | 67 | 120 | 0.0 | 0.0 | 0.00 | 0.00 | 0.00 | 79 | 1019.5 |
| 20260906030921 | 68 | 120 | 0.0 | 0.0 | 0.00 | 0.00 | 0.00 | 79 | 1019.6 |
| 20260906030416 | 68 | 121 | 0.0 | 0.0 | 0.00 | 0.00 | 0.00 | 79 | 1019.5 |
| 20260906025915 | 67 | 120 | 0.0 | 0.0 | 0.00 | 0.00 | 0.00 | 79 | 1019.6 |
| 20260906025405 | 67 | 120 | 0.0 | 0.0 | 0.00 | 0.00 | 0.00 | 80 | 1019.5 |
| 20260906024858 | 67 | 120 | 0.0 | 0.0 | 0.00 | 0.00 | 0.00 | 80 | 1019.5 |
| 20260906024347 | 67 | 121 | 0.0 | 0.0 | 0.00 | 0.00 | 0.00 | 81 | 1019.5 |
| 20260906023841 | 67 | 121 | 0.0 | 0.0 | 0.00 | 0.00 | 0.00 | 81 | 1019.5 |
| 20260906023332 | 67 | 121 | 0.0 | 0.0 | 0.00 | 0.00 | 0.00 | 81 | 1019.6 |
| 20260906022826 | 67 | 120 | 0.0 | 0.0 | 0.00 | 0.00 | 0.00 | 81 | 1019.5 |
| 20260906022331 | 67 | 120 | 0.0 | 0.0 | 0.00 | 0.00 | 0.00 | 81 | 1019.5 |
| 20260906021824 | 67 | 120 | 0.0 | 0.0 | 0.00 | 0.00 | 0.00 | 81 | 1019.6 |
| 20260906021326 | 67 | 120 | 0.0 | 0.0 | 0.00 | 0.00 | 0.00 | 80 | 1019.6 |
| 20260906020824 | 67 | 121 | 0.0 | 0.0 | 0.00 | 0.00 | 0.00 | 80 | 1019.6 |
| 20260906020314 | 67 | 120 | 0.0 | 0.0 | 0.00 | 0.00 | 0.00 | 80 | 1019.7 |
| 20260906015803 | 67 | 120 | 0.0 | 0.0 | 0.00 | 0.00 | 0.00 | 80 | 1019.7 |
| 20260906015254 | 67 | 121 | 0.0 | 0.0 | 0.00 | 0.00 | 0.00 | 80 | 1019.7 |
| 20260906014746 | 67 | 121 | 0.0 | 0.0 | 0.00 | 0.00 | 0.00 | 80 | 1019.7 |
| 20260906014245 | 67 | 120 | 0.0 | 0.0 | 0.00 | 0.00 | 0.00 | 80 | 1019.7 |
| 20260906013801 | 68 | 120 | 0.0 | 0.0 | 0.00 | 0.00 | 0.00 | 79 | 1019.6 |
| 20260906013242 | 68 | 120 | 0.0 | 0.0 | 0.00 | 0.00 | 0.00 | 78 | 1019.8 |
| 20260906012751 | 69 | 120 | 0.0 | 0.0 | 0.00 | 0.00 | 0.00 | 77 | 1019.8 |
| 20260906011736 | 69 | 120 | 0.0 | 0.0 | 0.00 | 0.00 | 0.00 | 77 | 1019.8 |
| 20260906010655 | 70 | 120 | 0.0 | 0.0 | 0.00 | 0.00 | 0.00 | 77 | 1019.8 |
| 20260906010157 | 70 | 120 | 0.0 | 0.0 | 0.00 | 0.00 | 0.00 | 77 | 1019.8 |
| 20260906005654 | 70 | 120 | 0.0 | 0.0 | 0.00 | 0.00 | 0.00 | 76 | 1019.8 |
| 20260906005213 | 70 | 121 | 0.0 | 0.0 | 0.00 | 0.00 | 0.00 | 76 | 1019.7 |
| 20260906004132 | 70 | 121 | 0.0 | 0.0 | 0.00 | 0.00 | 0.00 | 76 | 1019.7 |
| 20260906003624 | 71 | 121 | 0.0 | 0.0 | 0.00 | 0.00 | 0.00 | 75 | 1019.7 |
| 20260906003114 | 71 | 121 | 0.0 | 0.0 | 0.00 | 0.00 | 0.00 | 75 | 1019.6 |
| 20260906002612 | 71 | 120 | 0.0 | 0.0 | 0.00 | 0.00 | 0.00 | 74 | 1019.6 |
| 20260906002111 | 71 | 121 | 0.0 | 0.0 | 0.00 | 0.00 | 0.00 | 74 | 1019.6 |
| 20260906001610 | 71 | 120 | 0.0 | 0.0 | 0.00 | 0.00 | 0.00 | 72 | 1019.6 |
| 20260906001123 | 71 | 121 | 0.0 | 0.0 | 0.00 | 0.00 | 0.00 | 71 | 1019.5 |
| 20260906000044 | 71 | 120 | 0.0 | 0.0 | 0.00 | 0.00 | 0.00 | 70 | 1019.5 |
| 20260905235537 | 71 | 120 | 0.0 | 0.0 | 0.00 | 0.00 | 0.00 | 71 | 1019.5 |
| 20260905235025 | 71 | 121 | 0.0 | 3.0 | 0.00 | 0.00 | 0.00 | 72 | 1019.6 |
| 20260905234540 | 72 | 121 | 1.0 | 3.0 | 0.00 | 0.00 | 0.00 | 72 | 1019.6 |
| 20260905233501 | 72 | 120 | 3.0 | 5.0 | 0.00 | 0.00 | 0.00 | 73 | 1019.6 |
| 20260905232954 | 72 | 120 | 2.0 | 4.0 | 0.00 | 0.00 | 0.00 | 74 | 1019.6 |
| 20260905232444 | 72 | 120 | 1.0 | 3.0 | 0.00 | 0.00 | 0.00 | 72 | 1019.7 |
| 20260905231940 | 72 | 120 | 1.0 | 2.0 | 0.00 | 0.00 | 0.00 | 73 | 1019.7 |
| 20260905231440 | 72 | 120 | 1.0 | 3.0 | 0.00 | 0.00 | 0.00 | 74 | 1019.7 |
| 20260905231011 | 73 | 120 | 1.0 | 3.0 | 0.00 | 0.00 | 0.00 | 73 | 1019.8 |
| 20260905225939 | 73 | 120 | 0.0 | 1.0 | 0.00 | 0.00 | 0.00 | 74 | 1019.7 |
| 20260905225437 | 73 | 120 | 0.0 | 2.0 | 0.00 | 0.00 | 0.00 | 74 | 1019.7 |
| 20260905224943 | 72 | 120 | 2.0 | 4.0 | 0.00 | 0.00 | 0.00 | 73 | 1019.6 |
| 20260905223921 | 71 | 120 | 2.0 | 4.0 | 0.00 | 0.00 | 0.00 | 77 | 1019.5 |
| 20260905223534 | 72 | 120 | 2.0 | 3.0 | 0.00 | 0.00 | 0.00 | 78 | 1019.5 |
| 20260905222915 | 72 | 120 | 2.0 | 3.0 | 0.00 | 0.00 | 0.00 | 78 | 1019.5 |
| 20260905222409 | 72 | 119 | 2.0 | 4.0 | 0.00 | 0.00 | 0.00 | 78 | 1019.6 |
| 20260905221922 | 73 | 117 | 2.0 | 4.0 | 0.00 | 0.00 | 0.00 | 78 | 1019.6 |
| 20260905220854 | 73 | 0 | 1.0 | 2.0 | 0.00 | 0.00 | 0.00 | 77 | 1019.5 |
| 20260905220354 | 73 | 344 | 0.0 | 1.0 | 0.00 | 0.00 | 0.00 | 77 | 1019.5 |
| 20260905215856 | 73 | 344 | 0.0 | 2.0 | 0.00 | 0.00 | 0.00 | 77 | 1019.5 |
| 20260905215347 | 73 | 344 | 2.0 | 5.0 | 0.00 | 0.00 | 0.00 | 78 | 1019.4 |
| 20260905214857 | 73 | 342 | 3.0 | 5.0 | 0.00 | 0.00 | 0.00 | 78 | 1019.3 |
| 20260905213831 | 73 | 98 | 1.0 | 2.0 | 0.00 | 0.00 | 0.00 | 77 | 1019.3 |
| 20260905213326 | 73 | 98 | 1.0 | 3.0 | 0.00 | 0.00 | 0.00 | 77 | 1019.2 |
| 20260905212823 | 74 | 105 | 1.0 | 3.0 | 0.00 | 0.00 | 0.00 | 77 | 1019.1 |
| 20260905212325 | 74 | 136 | 0.0 | 2.0 | 0.00 | 0.00 | 0.00 | 76 | 1019.1 |
| 20260905211820 | 74 | 138 | 0.0 | 1.0 | 0.00 | 0.00 | 0.00 | 75 | 1019.2 |
| 20260905211320 | 74 | 138 | 0.0 | 1.0 | 0.00 | 0.00 | 0.00 | 73 | 1019.1 |
| 20260905210823 | 74 | 138 | 0.0 | 2.0 | 0.00 | 0.00 | 0.00 | 72 | 1019.1 |
| 20260905205753 | 75 | 138 | 0.0 | 1.0 | 0.00 | 0.00 | 0.00 | 72 | 1019.1 |
| 20260905205308 | 75 | 138 | 0.0 | 1.0 | 0.00 | 0.00 | 0.00 | 72 | 1019.1 |
| 20260905204332 | 75 | 138 | 1.0 | 3.0 | 0.00 | 0.00 | 0.00 | 69 | 1019.1 |
| 20260905202720 | 76 | 142 | 0.0 | 2.0 | 0.00 | 0.00 | 0.00 | 68 | 1019.0 |
| 20260905202225 | 76 | 144 | 0.0 | 2.0 | 0.00 | 0.00 | 0.00 | 67 | 1018.9 |
| 20260905201723 | 76 | 144 | 0.0 | 2.0 | 0.00 | 0.00 | 0.00 | 66 | 1018.9 |
| 20260905201215 | 76 | 120 | 0.0 | 2.0 | 0.00 | 0.00 | 0.00 | 64 | 1018.9 |
| 20260905200708 | 76 | 120 | 0.0 | 2.0 | 0.00 | 0.00 | 0.00 | 64 | 1018.9 |
| 20260905200157 | 77 | 120 | 0.0 | 2.0 | 0.00 | 0.00 | 0.00 | 65 | 1018.7 |
| 20260905195656 | 77 | 120 | 0.0 | 2.0 | 0.00 | 0.00 | 0.00 | 65 | 1018.7 |
| 20260905195218 | 77 | 120 | 1.0 | 3.0 | 0.00 | 0.00 | 0.00 | 66 | 1018.7 |
| 20260905194206 | 77 | 177 | 2.0 | 6.0 | 0.00 | 0.00 | 0.00 | 65 | 1018.9 |
| 20260905193126 | 78 | 281 | 2.0 | 4.0 | 0.00 | 0.00 | 0.00 | 68 | 1018.9 |
| 20260905192656 | 78 | 309 | 2.0 | 5.0 | 0.00 | 0.00 | 0.00 | 67 | 1018.7 |
| 20260905191624 | 78 | 304 | 2.0 | 5.0 | 0.00 | 0.00 | 0.00 | 65 | 1018.7 |
| 20260905191114 | 78 | 286 | 1.0 | 3.0 | 0.00 | 0.00 | 0.00 | 64 | 1018.6 |
| 20260905190622 | 79 | 236 | 1.0 | 2.0 | 0.00 | 0.00 | 0.00 | 63 | 1018.6 |
| 20260905185557 | 79 | 235 | 0.0 | 2.0 | 0.00 | 0.00 | 0.00 | 62 | 1018.4 |
| 20260905185158 | 80 | 234 | 0.0 | 2.0 | 0.00 | 0.00 | 0.00 | 61 | 1018.4 |
| 20260905183029 | 80 | 300 | 3.0 | 6.0 | 0.00 | 0.00 | 0.00 | 59 | 1018.2 |
| 20260905182600 | 81 | 291 | 2.0 | 6.0 | 0.00 | 0.00 | 0.00 | 58 | 1018.1 |
| 20260905181518 | 82 | 294 | 3.0 | 7.0 | 0.00 | 0.00 | 0.00 | 57 | 1017.9 |
| 20260905181008 | 82 | 274 | 1.0 | 5.0 | 0.00 | 0.00 | 0.00 | 55 | 1017.8 |
| 20260905180457 | 83 | 218 | 1.0 | 7.0 | 0.00 | 0.00 | 0.00 | 52 | 1017.9 |
| 20260905175949 | 83 | 218 | 4.0 | 10.0 | 0.00 | 0.00 | 0.00 | 50 | 1017.8 |
| 20260905175444 | 83 | 298 | 4.0 | 10.0 | 0.00 | 0.00 | 0.00 | 50 | 1017.7 |
| 20260905174929 | 84 | 269 | 3.0 | 7.0 | 0.00 | 0.00 | 0.00 | 46 | 1017.8 |
| 20260905174457 | 84 | 294 | 3.0 | 6.0 | 0.00 | 0.00 | 0.00 | 43 | 1017.7 |
| 20260905173425 | 85 | 268 | 3.0 | 6.0 | 0.00 | 0.00 | 0.00 | 43 | 1017.6 |
| 20260905172924 | 85 | 226 | 3.0 | 7.0 | 0.00 | 0.00 | 0.00 | 42 | 1017.5 |
| 20260905172516 | 85 | 217 | 3.0 | 7.0 | 0.00 | 0.00 | 0.00 | 42 | 1017.5 |
| 20260905170920 | 86 | 194 | 3.0 | 6.0 | 0.00 | 0.00 | 0.00 | 42 | 1017.3 |
| 20260905170417 | 86 | 178 | 3.0 | 7.0 | 0.00 | 0.00 | 0.00 | 42 | 1017.2 |
| 20260905165907 | 87 | 168 | 4.0 | 8.0 | 0.00 | 0.00 | 0.00 | 41 | 1017.2 |
| 20260905165358 | 87 | 186 | 4.0 | 9.0 | 0.00 | 0.00 | 0.00 | 40 | 1017.1 |
| 20260905164848 | 88 | 190 | 5.0 | 10.0 | 0.00 | 0.00 | 0.00 | 40 | 1017.2 |
| 20260905164348 | 88 | 200 | 5.0 | 13.0 | 0.00 | 0.00 | 0.00 | 40 | 1017.2 |
| 20260905163912 | 89 | 198 | 5.0 | 13.0 | 0.00 | 0.00 | 0.00 | 41 | 1017.2 |
| 20260905162842 | 90 | 187 | 4.0 | 8.0 | 0.00 | 0.00 | 0.00 | 41 | 1017.1 |
| 20260905162329 | 90 | 199 | 4.0 | 8.0 | 0.00 | 0.00 | 0.00 | 41 | 1017.1 |
| 20260905161827 | 91 | 204 | 4.0 | 8.0 | 0.00 | 0.00 | 0.00 | 41 | 1017.1 |
| 20260905161329 | 91 | 188 | 4.0 | 8.0 | 0.00 | 0.00 | 0.00 | 41 | 1017.0 |
| 20260905160844 | 92 | 217 | 4.0 | 8.0 | 0.00 | 0.00 | 0.00 | 42 | 1017.0 |
| 20260905155805 | 92 | 229 | 5.0 | 11.0 | 0.00 | 0.00 | 0.00 | 41 | 1017.0 |
| 20260905155256 | 92 | 250 | 5.0 | 10.0 | 0.00 | 0.00 | 0.00 | 39 | 1017.1 |
| 20260905154750 | 93 | 207 | 6.0 | 11.0 | 0.00 | 0.00 | 0.00 | 39 | 1017.0 |
| 20260905154238 | 94 | 200 | 5.0 | 9.0 | 0.00 | 0.00 | 0.00 | 37 | 1016.9 |
| 20260905153730 | 94 | 229 | 5.0 | 9.0 | 0.00 | 0.00 | 0.00 | 37 | 1017.0 |
| 20260905153231 | 95 | 217 | 5.0 | 9.0 | 0.00 | 0.00 | 0.00 | 36 | 1016.9 |
| 20260905152844 | 95 | 256 | 5.0 | 11.0 | 0.00 | 0.00 | 0.00 | 35 | 1016.8 |
| 20260905151223 | 97 | 196 | 3.0 | 10.0 | 0.00 | 0.00 | 0.00 | 33 | 1016.9 |
| 20260905150731 | 96 | 286 | 4.0 | 8.0 | 0.00 | 0.00 | 0.00 | 33 | 1016.9 |
| 20260905145817 | 97 | 211 | 4.0 | 9.0 | 0.00 | 0.00 | 0.00 | 32 | 1016.9 |
| 20260905144642 | 98 | 292 | 4.0 | 7.0 | 0.00 | 0.00 | 0.00 | 33 | 1017.0 |
| 20260905144254 | 97 | 327 | 4.0 | 8.0 | 0.00 | 0.00 | 0.00 | 31 | 1017.1 |
| 20260905143143 | 98 | 275 | 3.0 | 8.0 | 0.00 | 0.00 | 0.00 | 32 | 1017.0 |
| 20260905142639 | 98 | 288 | 3.0 | 6.0 | 0.00 | 0.00 | 0.00 | 30 | 1017.0 |
| 20260905142145 | 97 | 304 | 2.0 | 6.0 | 0.00 | 0.00 | 0.00 | 30 | 1017.1 |
| 20260905141639 | 97 | 210 | 1.0 | 4.0 | 0.00 | 0.00 | 0.00 | 32 | 1017.2 |
| 20260905141139 | 97 | 209 | 1.0 | 4.0 | 0.00 | 0.00 | 0.00 | 29 | 1017.3 |
| 20260905140638 | 97 | 227 | 2.0 | 5.0 | 0.00 | 0.00 | 0.00 | 30 | 1017.3 |
| 20260905140138 | 97 | 351 | 4.0 | 6.0 | 0.00 | 0.00 | 0.00 | 33 | 1017.3 |
| 20260905135633 | 97 | 329 | 4.0 | 6.0 | 0.00 | 0.00 | 0.00 | 31 | 1017.4 |
| 20260905135121 | 97 | 311 | 4.0 | 7.0 | 0.00 | 0.00 | 0.00 | 31 | 1017.5 |
| 20260905134616 | 96 | 261 | 4.0 | 7.0 | 0.00 | 0.00 | 0.00 | 32 | 1017.5 |
| 20260905134157 | 96 | 324 | 4.0 | 9.0 | 0.00 | 0.00 | 0.00 | 32 | 1017.6 |
| 20260905133106 | 95 | 311 | 6.0 | 10.0 | 0.00 | 0.00 | 0.00 | 32 | 1017.7 |
| 20260905132554 | 95 | 315 | 5.0 | 10.0 | 0.00 | 0.00 | 0.00 | 32 | 1017.8 |
| 20260905132047 | 96 | 297 | 5.0 | 11.0 | 0.00 | 0.00 | 0.00 | 32 | 1017.7 |
| 20260905131537 | 96 | 272 | 5.0 | 11.0 | 0.00 | 0.00 | 0.00 | 30 | 1017.8 |
| 20260905131029 | 96 | 302 | 3.0 | 11.0 | 0.00 | 0.00 | 0.00 | 31 | 1017.8 |
| 20260905130525 | 96 | 279 | 4.0 | 7.0 | 0.00 | 0.00 | 0.00 | 29 | 1017.9 |
| 20260905130051 | 96 | 315 | 5.0 | 10.0 | 0.00 | 0.00 | 0.00 | 32 | 1017.9 |
| 20260905125016 | 96 | 335 | 3.0 | 7.0 | 0.00 | 0.00 | 0.00 | 32 | 1018.0 |
| 20260905124504 | 96 | 308 | 3.0 | 6.0 | 0.00 | 0.00 | 0.00 | 31 | 1018.0 |
| 20260905123958 | 96 | 250 | 3.0 | 6.0 | 0.00 | 0.00 | 0.00 | 30 | 1018.0 |
| 20260905123450 | 96 | 287 | 4.0 | 7.0 | 0.00 | 0.00 | 0.00 | 30 | 1018.1 |
| 20260905122939 | 95 | 200 | 4.0 | 9.0 | 0.00 | 0.00 | 0.00 | 30 | 1018.1 |
| 20260905122430 | 95 | 261 | 4.0 | 8.0 | 0.00 | 0.00 | 0.00 | 29 | 1018.2 |
| 20260905121927 | 95 | 286 | 5.0 | 10.0 | 0.00 | 0.00 | 0.00 | 29 | 1018.2 |
| 20260905121426 | 96 | 184 | 3.0 | 10.0 | 0.00 | 0.00 | 0.00 | 27 | 1018.3 |
| 20260905121006 | 96 | 192 | 1.0 | 7.0 | 0.00 | 0.00 | 0.00 | 29 | 1018.3 |
| 20260905115915 | 96 | 154 | 2.0 | 4.0 | 0.00 | 0.00 | 0.00 | 27 | 1018.2 |
| 20260905115438 | 95 | 155 | 1.0 | 4.0 | 0.00 | 0.00 | 0.00 | 33 | 1018.2 |
| 20260905114401 | 95 | 219 | 1.0 | 3.0 | 0.00 | 0.00 | 0.00 | 31 | 1018.3 |
| 20260905113853 | 95 | 219 | 1.0 | 3.0 | 0.00 | 0.00 | 0.00 | 30 | 1018.3 |
| 20260905113405 | 94 | 223 | 1.0 | 3.0 | 0.00 | 0.00 | 0.00 | 31 | 1018.4 |
| 20260905112351 | 93 | 221 | 3.0 | 6.0 | 0.00 | 0.00 | 0.00 | 33 | 1018.4 |
| 20260905111400 | 92 | 294 | 3.0 | 7.0 | 0.00 | 0.00 | 0.00 | 36 | 1018.5 |
| 20260905110321 | 91 | 296 | 4.0 | 7.0 | 0.00 | 0.00 | 0.00 | 39 | 1018.6 |
| 20260905105805 | 91 | 302 | 4.0 | 7.0 | 0.00 | 0.00 | 0.00 | 40 | 1018.6 |
| 20260905105258 | 91 | 325 | 4.0 | 7.0 | 0.00 | 0.00 | 0.00 | 40 | 1018.7 |
| 20260905104755 | 90 | 9 | 4.0 | 6.0 | 0.00 | 0.00 | 0.00 | 43 | 1018.7 |
| 20260905104312 | 90 | 349 | 4.0 | 7.0 | 0.00 | 0.00 | 0.00 | 43 | 1018.9 |
| 20260905103229 | 90 | 350 | 4.0 | 7.0 | 0.00 | 0.00 | 0.00 | 44 | 1018.9 |
| 20260905102727 | 90 | 346 | 5.0 | 7.0 | 0.00 | 0.00 | 0.00 | 41 | 1018.9 |
| 20260905102224 | 91 | 344 | 3.0 | 6.0 | 0.00 | 0.00 | 0.00 | 41 | 1018.7 |
| 20260905101714 | 91 | 348 | 3.0 | 5.0 | 0.00 | 0.00 | 0.00 | 41 | 1018.7 |
| 20260905101204 | 91 | 350 | 3.0 | 6.0 | 0.00 | 0.00 | 0.00 | 40 | 1018.7 |
| 20260905100701 | 91 | 338 | 2.0 | 6.0 | 0.00 | 0.00 | 0.00 | 42 | 1018.6 |
| 20260905100202 | 91 | 337 | 3.0 | 5.0 | 0.00 | 0.00 | 0.00 | 43 | 1018.7 |
| 20260905095719 | 90 | 337 | 3.0 | 5.0 | 0.00 | 0.00 | 0.00 | 41 | 1018.9 |
| 20260905094657 | 90 | 344 | 2.0 | 5.0 | 0.00 | 0.00 | 0.00 | 40 | 1019.0 |
| 20260905094150 | 90 | 338 | 2.0 | 5.0 | 0.00 | 0.00 | 0.00 | 41 | 1019.0 |
| 20260905093638 | 89 | 333 | 3.0 | 5.0 | 0.00 | 0.00 | 0.00 | 43 | 1019.0 |
| 20260905093132 | 89 | 329 | 3.0 | 5.0 | 0.00 | 0.00 | 0.00 | 44 | 1019.2 |
| 20260905092628 | 88 | 332 | 2.0 | 5.0 | 0.00 | 0.00 | 0.00 | 42 | 1019.1 |
| 20260905092128 | 88 | 334 | 2.0 | 5.0 | 0.00 | 0.00 | 0.00 | 43 | 1019.2 |
| 20260905091628 | 87 | 338 | 3.0 | 5.0 | 0.00 | 0.00 | 0.00 | 44 | 1019.2 |
| 20260905091137 | 87 | 339 | 2.0 | 5.0 | 0.00 | 0.00 | 0.00 | 44 | 1019.3 |
| 20260905090143 | 86 | 351 | 1.0 | 4.0 | 0.00 | 0.00 | 0.00 | 49 | 1019.3 |
| 20260905084555 | 84 | 351 | 2.0 | 4.0 | 0.00 | 0.00 | 0.00 | 48 | 1019.3 |
| 20260905084049 | 84 | 351 | 3.0 | 5.0 | 0.00 | 0.00 | 0.00 | 53 | 1019.4 |
| 20260905083537 | 84 | 341 | 3.0 | 6.0 | 0.00 | 0.00 | 0.00 | 52 | 1019.4 |
| 20260905083030 | 83 | 323 | 3.0 | 6.0 | 0.00 | 0.00 | 0.00 | 52 | 1019.4 |
| 20260905082526 | 83 | 310 | 3.0 | 5.0 | 0.00 | 0.00 | 0.00 | 51 | 1019.4 |
| 20260905082028 | 83 | 286 | 3.0 | 5.0 | 0.00 | 0.00 | 0.00 | 53 | 1019.2 |
| 20260905081523 | 82 | 231 | 2.0 | 5.0 | 0.00 | 0.00 | 0.00 | 54 | 1019.1 |
| 20260905081019 | 82 | 200 | 2.0 | 5.0 | 0.00 | 0.00 | 0.00 | 55 | 1019.1 |
| 20260905080504 | 81 | 178 | 2.0 | 4.0 | 0.00 | 0.00 | 0.00 | 55 | 1019.0 |
| 20260905075956 | 81 | 159 | 2.0 | 3.0 | 0.00 | 0.00 | 0.00 | 55 | 1018.9 |
| 20260905075448 | 81 | 157 | 1.0 | 3.0 | 0.00 | 0.00 | 0.00 | 56 | 1019.0 |
| 20260905074938 | 80 | 149 | 1.0 | 3.0 | 0.00 | 0.00 | 0.00 | 57 | 1019.1 |
| 20260905074429 | 80 | 149 | 2.0 | 4.0 | 0.00 | 0.00 | 0.00 | 56 | 1019.0 |
| 20260905073954 | 79 | 149 | 3.0 | 4.0 | 0.00 | 0.00 | 0.00 | 56 | 1019.0 |
| 20260905072925 | 78 | 148 | 1.0 | 4.0 | 0.00 | 0.00 | 0.00 | 57 | 1019.0 |
| 20260905072459 | 77 | 148 | 1.0 | 4.0 | 0.00 | 0.00 | 0.00 | 60 | 1019.2 |
| 20260905070910 | 75 | 146 | 0.0 | 2.0 | 0.00 | 0.00 | 0.00 | 61 | 1019.2 |
| 20260905070401 | 74 | 146 | 0.0 | 0.0 | 0.00 | 0.00 | 0.00 | 61 | 1019.1 |
| 20260905065852 | 73 | 146 | 0.0 | 0.0 | 0.00 | 0.00 | 0.00 | 62 | 1019.0 |